Location: Napier
(39.4830°S, 176.9170°E)
Time: 23:24:00
(UTC+13:00)

SL-16 R/B - Pass Details

Date: 24 January 2019
Orbit: 842 x 846 km, 71.0° (Epoch: 21 February)

Event Time Altitude Azimuth Distance (km) Brightness Sun altitude
Rises 22:37:38 0° 314° (NW) 3,401 5.3 -19.6°
Reaches altitude 10° 22:40:16 10° 306° (NW) 2,473 4.7 -19.9°
Maximum altitude 22:45:28 36° 239° (WSW) 1,324 3.8 -20.6°
Drops below altitude 10° 22:50:44 10° 173° (S) 2,496 5.2 -21.2°
Sets 22:53:25 0° 164° (SSE) 3,437 5.9 -21.5°
